Location: Penton Mewsey
(51.2167°N, 1.5167°W)
Time: 08:21:13
(UTC+00:00)

IRIDIUM 106 - Pass Details

Date: 30 March 2020
Orbit: 776 x 779 km, 86.4° (Epoch: 24 May)

Event Time Altitude Azimuth Distance (km) Brightness Sun altitude
Rises 19:46:43 0° 358° (N) 3,278 7.9 -11.4°
Reaches altitude 10° 19:49:07 10° 3° (N) 2,345 7.1 -11.8°
Maximum altitude 19:54:17 56° 81° (E) 925 4.4 -12.5°
Drops below altitude 10° 19:59:25 10° 160° (SSE) 2,326 6.4 -13.3°
Enters shadow 20:00:04 - 162° (SSE) 2,579 6.6 -13.4°
